Location: Armstrong Village
(14.3346°N, 120.9854°E)
Time: 12:54:43
(UTC+00:00)

Cosmos 1821 Rocket - Pass Details

Date: 16 April 2026
Orbit: 945 x 1003 km, 82.9° (Epoch: 12 May)

Event Time Altitude Azimuth Distance (km) Brightness Sun altitude
Exits shadow 11:53:07 35° 50° (NE) 1,507 4.7 -25.0°
Drops below altitude 10° 11:57:08 10° 21° (NNE) 2,721 6.3 -25.9°
Sets 11:59:46 0° 15° (NNE) 3,677 7.1 -26.5°
